Total_Precipitation_Accumulation
0.00 0.00 0.00 0.00 0.00 0.00 0.00 0.00 0.00 0.00 0.00 0.00 0.00 0.00 0.01 0.03 0.09 0.20 0.42 0.64 0.84 0.93 0.92 0.90 0.83 0.86 0.80 0.76 0.83 0.85 1.00 1.27 1.49 1.51 1.52 1.53 1.39 1.23 0.98 0.82 0.81 0.92 0.99 1.15
0.00 0.00 0.00 0.00 0.00 0.00 0.00 0.00 0.00 0.00 0.00 0.00 0.00 0.00 0.02 0.06 0.08 0.10 0.23 0.39 0.54 0.88 1.05 1.09 1.13 1.06 0.90 0.93 1.12 1.36 1.72 2.00 1.88 1.98 2.15 2.06 1.90 1.45 1.18 1.04 1.02 1.07 1.21 1.33
0.00 0.00 0.00 0.00 0.00 0.00 0.00 0.00 0.00 0.00 0.00 0.00 0.00 0.00 0.02 0.09 0.17 0.24 0.29 0.32 0.36 0.50 0.63 0.77 0.91 1.00 1.17 1.39 1.61 1.86 2.15 2.24 2.17 2.28 2.31 2.02 1.89 1.53 1.40 1.32 1.22 1.23 1.41 1.51
0.00 0.00 0.00 0.00 0.00 0.00 0.00 0.00 0.00 0.00 0.00 0.00 0.00 0.00 0.01 0.05 0.15 0.29 0.37 0.45 0.54 0.53 0.52 0.67 0.86 1.14 1.49 1.80 2.15 2.42 2.44 2.42 2.35 2.41 2.35 2.21 2.01 1.76 1.70 1.72 1.51 1.36 1.36 1.42
0.01 0.00 0.00 0.00 0.00 0.00 0.00 0.00 0.00 0.00 0.00 0.00 0.00 0.00 0.01 0.03 0.09 0.23 0.34 0.49 0.66 0.67 0.64 0.75 0.94 1.21 1.42 1.72 2.03 2.27 2.44 2.46 2.36 2.31 2.25 2.21 2.01 1.80 1.70 1.63 1.50 1.43 1.46 1.38
0.03 0.02 0.01 0.01 0.00 0.00 0.00 0.00 0.00 0.00 0.00 0.01 0.01 0.01 0.03 0.04 0.07 0.14 0.32 0.48 0.67 0.86 0.88 0.95 1.16 1.34 1.41 1.56 1.81 1.98 2.09 2.12 2.09 2.02 1.98 1.99 1.94 1.91 1.76 1.60 1.60 1.63 1.55 1.38
0.05 0.04 0.04 0.03 0.02 0.01 0.00 0.01 0.05 0.04 0.06 0.06 0.05 0.04 0.08 0.11 0.13 0.18 0.29 0.50 0.72 0.96 1.04 1.14 1.33 1.46 1.52 1.49 1.54 1.63 1.66 1.68 1.61 1.54 1.48 1.51 1.55 1.57 1.52 1.51 1.56 1.60 1.54 1.43
0.12 0.06 0.07 0.09 0.07 0.04 0.04 0.06 0.17 0.14 0.05 0.04 0.05 0.09 0.20 0.20 0.21 0.25 0.31 0.43 0.64 0.84 0.97 1.12 1.22 1.16 1.10 1.10 1.15 1.19 1.19 1.18 1.13 1.14 1.16 1.21 1.32 1.38 1.38 1.47 1.48 1.53 1.51 1.46
0.06 0.05 0.06 0.08 0.09 0.08 0.12 0.16 0.14 0.23 0.17 0.14 0.06 0.13 0.26 0.28 0.39 0.44 0.51 0.56 0.61 0.67 0.69 0.74 0.78 0.83 0.89 0.92 0.92 0.92 0.94 0.94 0.88 0.87 0.94 1.01 1.07 1.17 1.20 1.30 1.33 1.32 1.31 1.24
0.02 0.02 0.03 0.04 0.05 0.07 0.13 0.22 0.33 0.47 0.45 0.33 0.15 0.19 0.40 0.57 0.65 0.65 0.74 0.94 0.83 0.61 0.55 0.55 0.56 0.62 0.66 0.69 0.74 0.78 0.86 0.94 0.91 0.85 0.84 0.85 0.90 0.95 1.05 1.11 1.13 1.16 1.19 1.16
0.01 0.03 0.04 0.05 0.07 0.12 0.21 0.28 0.38 0.48 0.50 0.46 0.38 0.37 0.34 0.63 0.74 0.72 0.73 0.76 0.67 0.47 0.36 0.32 0.33 0.38 0.46 0.58 0.66 0.68 0.79 0.87 0.82 0.73 0.72 0.76 0.78 0.81 0.86 0.92 0.94 0.98 1.03 1.09
0.02 0.03 0.03 0.05 0.07 0.07 0.16 0.28 0.39 0.49 0.48 0.48 0.47 0.51 0.32 0.46 0.52 0.53 0.58 0.49 0.40 0.29 0.22 0.20 0.20 0.25 0.32 0.41 0.47 0.55 0.64 0.74 0.76 0.71 0.71 0.74 0.77 0.76 0.75 0.77 0.76 0.78 0.81 0.84
0.00 0.01 0.02 0.07 0.14 0.12 0.13 0.15 0.22 0.31 0.37 0.39 0.47 0.59 0.37 0.35 0.44 0.44 0.40 0.33 0.24 0.20 0.16 0.15 0.17 0.20 0.24 0.29 0.36 0.43 0.48 0.56 0.64 0.66 0.70 0.76 0.74 0.71 0.73 0.75 0.75 0.74 0.72 0.73
0.00 0.00 0.02 0.06 0.09 0.07 0.09 0.13 0.17 0.25 0.34 0.30 0.30 0.44 0.45 0.41 0.39 0.34 0.28 0.22 0.20 0.17 0.15 0.14 0.14 0.16 0.16 0.19 0.26 0.31 0.34 0.41 0.48 0.57 0.71 0.82 0.87 0.86 0.85 0.80 0.79 0.77 0.73 0.73
0.00 0.01 0.02 0.02 0.02 0.02 0.04 0.07 0.12 0.17 0.21 0.29 0.28 0.37 0.43 0.38 0.32 0.26 0.23 0.21 0.22 0.20 0.15 0.12 0.11 0.10 0.11 0.13 0.17 0.25 0.32 0.36 0.42 0.56 0.77 0.87 0.84 0.77 0.75 0.73 0.79 0.75 0.67 0.67
0.00 0.01 0.03 0.06 0.07 0.09 0.12 0.13 0.11 0.11 0.12 0.16 0.22 0.32 0.29 0.27 0.26 0.26 0.24 0.21 0.19 0.16 0.13 0.11 0.10 0.08 0.08 0.08 0.09 0.16 0.26 0.32 0.40 0.50 0.62 0.65 0.68 0.69 0.64 0.59 0.56 0.55 0.57 0.56
0.01 0.01 0.03 0.05 0.13 0.16 0.22 0.18 0.23 0.25 0.21 0.22 0.34 0.36 0.26 0.23 0.19 0.16 0.14 0.13 0.13 0.11 0.09 0.08 0.08 0.07 0.06 0.06 0.08 0.14 0.20 0.25 0.35 0.42 0.46 0.52 0.61 0.63 0.55 0.47 0.48 0.51 0.49 0.47
0.01 0.01 0.03 0.06 0.17 0.29 0.23 0.06 0.06 0.11 0.14 0.15 0.20 0.20 0.17 0.15 0.11 0.09 0.07 0.07 0.07 0.06 0.06 0.05 0.05 0.05 0.05 0.06 0.09 0.13 0.18 0.23 0.32 0.41 0.47 0.50 0.59 0.60 0.53 0.50 0.48 0.46 0.44 0.43
0.00 0.00 0.02 0.05 0.11 0.18 0.11 0.04 0.04 0.07 0.09 0.04 0.07 0.08 0.08 0.06 0.07 0.10 0.06 0.03 0.03 0.03 0.04 0.04 0.03 0.05 0.07 0.08 0.10 0.14 0.21 0.24 0.31 0.40 0.49 0.57 0.62 0.59 0.54 0.51 0.47 0.44 0.43 0.38
0.00 0.00 0.01 0.03 0.10 0.15 0.08 0.04 0.05 0.08 0.20 0.11 0.08 0.07 0.06 0.06 0.13 0.16 0.05 0.01 0.01 0.03 0.07 0.08 0.06 0.09 0.14 0.13 0.12 0.18 0.24 0.31 0.41 0.48 0.54 0.59 0.60 0.61 0.58 0.56 0.52 0.47 0.47 0.42
0.00 0.00 0.01 0.03 0.07 0.09 0.03 0.04 0.06 0.16 0.25 0.06 0.02 0.02 0.02 0.06 0.11 0.08 0.02 0.01 0.01 0.03 0.08 0.12 0.15 0.22 0.22 0.18 0.19 0.26 0.30 0.37 0.43 0.50 0.57 0.64 0.68 0.63 0.60 0.60 0.59 0.57 0.54 0.54
0.00 0.01 0.01 0.03 0.10 0.12 0.02 0.02 0.04 0.06 0.03 0.02 0.02 0.02 0.02 0.02 0.02 0.03 0.02 0.02 0.02 0.04 0.07 0.14 0.24 0.29 0.26 0.26 0.34 0.41 0.43 0.43 0.46 0.54 0.62 0.71 0.75 0.61 0.55 0.64 0.65 0.64 0.65 0.65
0.00 0.01 0.01 0.03 0.05 0.02 0.01 0.01 0.02 0.02 0.02 0.02 0.02 0.01 0.02 0.02 0.02 0.03 0.02 0.03 0.06 0.09 0.11 0.13 0.21 0.25 0.27 0.34 0.46 0.60 0.62 0.55 0.55 0.61 0.70 0.72 0.73 0.76 0.75 0.70 0.70 0.70 0.69 0.71
0.00 0.00 0.01 0.03 0.02 0.01 0.01 0.01 0.01 0.01 0.01 0.01 0.01 0.01 0.01 0.02 0.02 0.02 0.02 0.03 0.07 0.10 0.10 0.11 0.16 0.23 0.31 0.40 0.53 0.64 0.67 0.65 0.66 0.70 0.74 0.78 0.80 0.81 0.83 0.85 0.83 0.79 0.75 0.77
0.00 0.00 0.02 0.05 0.03 0.02 0.01 0.01 0.01 0.00 0.01 0.01 0.01 0.01 0.01 0.02 0.03 0.03 0.04 0.04 0.05 0.07 0.08 0.10 0.16 0.25 0.31 0.39 0.49 0.56 0.60 0.69 0.76 0.78 0.81 0.84 0.85 0.87 0.88 0.88 0.87 0.84 0.80 0.74
0.01 0.01 0.03 0.04 0.03 0.03 0.03 0.01 0.00 0.00 0.01 0.01 0.01 0.01 0.02 0.02 0.03 0.04 0.05 0.05 0.05 0.06 0.08 0.11 0.15 0.21 0.27 0.34 0.44 0.52 0.63 0.73 0.83 0.86 0.81 0.79 0.78 0.79 0.82 0.81 0.70 0.59 0.57 0.54